Location: Corcelles
(46.1547°N, 4.7234°E)
Time: 20:58:37
(UTC+00:00)

Meteor 1-28 Rocket - Pass Details

Date: 14 July 2020
Orbit: 505 x 522 km, 97.3° (Epoch: 14 August)

Event Time Altitude Azimuth Distance (km) Brightness Sun altitude
Exits shadow 02:31:18 - 165° (SSE) 1,980 5.8 -12.7°
Reaches altitude 10° 02:31:55 10° 164° (SSE) 1,718 5.5 -12.6°
Maximum altitude 02:35:37 85° 78° (ENE) 517 3.2 -12.2°
Drops below altitude 10° 02:39:23 10° 349° (NNW) 1,742 6.4 -11.8°
Sets 02:41:29 0° 349° (NNW) 2,636 7.4 -11.6°
